Capitol Logistics 2296


KJFK
John F Kennedy International Airport
New York, New York, US
KSDF
Louisville International Airport-Standiford Field
Louisville, Kentucky, US

Activity Log

Date Flight Route Aircraft Duration
11/28/2019 CPX2296 KJFK/22R DEEZZ5 CANDR HOTEE Q42 HIDON UKATS DLAMP6 KSDF/FINCH.R29 B763 2h 22m

Route Details

Aircraft Information
Primary: Boeing 747-400BCF
Backup: Boeing 767-300BDSF
Date Restrictions
Between:Nov 16, 2019
Dec 31, 2019
Route Data
Distance: 574nm
Sched. Duration: 1h 47m
Avg. Duration: 2h 22m (+75m)
Times Flown: 1
Recm'd Route: RBV J230 AIR UKATS DLAMP6
Planned Altitude: 34,000ft
Origin Wx: KJFK 130151Z 21009KT 10SM SCT065 BKN100 28/19 A2976 RMK AO2 SLP078 T02780194
Dest. Wx: KSDF 130156Z 31009KT 10SM SCT040 BKN050 BKN250 26/21 A2984 RMK AO2 SLP101 T02560206
Notes: SEASONAL FLIGHT | UPS SURGE OPS CONTRACT

Financial History
Total Freight: 117,944lbs
Average Load: 117,944lbs/flt
Fuel Used: 25,308lbs
Avg. Fuel Used: 25,308lbs/flt
Fuel Expense: $24,802
Avg. Fuel Expense: $24,802
Avg. Fuel Cost: $0.98/lbs
Total Gross Income: $222,914
Pilot Pay: $229
Total Expenses: $24,127
Total Revenue: $173,325
Average Revenue: $222,914.16